[[{"header":{"parameterUnit":"m.s-1","parameterCategory":1,"la1":30.2991,"la2":30.254,"lo1":-89.0895,"lo2":-89.0444,"dx":0.0017,"dy":0.0017,"nx":28,"ny":28,"refTime":"2022-11-16T09:00:00:Z","depth":0,"parameterNumber":2,"parameterNumberName":"U-component_of_WINDS"},"data":[0,0,0,0,0,0,0,0,0,0,0,0,0,0,0,0,0,0,0,0,0,0,0,0,0,0,0,0,0,0,0,0,0,0,0,0,0,0,0,0,0,0,0,0,0,0,0,0,0,0,0,0,0,0,0,0,0,0,-0.0195,-0.0195,0,-0.0227,-0.0227,-0.0228,-0.021,-0.0209,-0.0208,-0.0208,-0.0243,-0.0245,-0.0246,0,0,0,0,0,0,0,0,0,0,0,0,0,-0.012,-0.0121,-0.0195,-0.0195,-0.0195,-0.0227,-0.0227,-0.0228,-0.021,-0.0209,-0.0208,-0.0207,-0.0242,-0.0244,-0.0247,0,0,0,0,0,0,0,0,0,0,0,0,0,-0.0152,-0.0122,-0.0195,-0.019,-0.019,-0.0227,-0.0227,-0.0228,-0.0211,-0.0209,-0.0208,-0.0207,-0.0242,-0.0244,-0.0247,-0.029,0,0,-0.0255,-0.0256,0,0,0,0,0,0,0,0,-0.015,-0.0155,-0.0191,-0.0191,-0.0191,-0.0213,-0.0214,-0.0249,-0.0211,-0.0203,-0.0207,-0.0206,-0.0234,-0.0237,-0.0246,-0.0291,-0.0293,-0.0255,-0.0257,-0.0258,-0.0259,0,0,0,0,0,0,0,-0.0148,-0.0153,-0.0207,-0.0191,-0.0191,-0.0188,-0.0191,-0.022,-0.0226,-0.0204,-0.0202,-0.0206,-0.0234,-0.0244,-0.0247,-0.0293,-0.0255,-0.0257,-0.0259,-0.026,-0.0374,-0.0376,0,0,0,0,0,0,-0.0146,-0.0152,-0.0206,-0.0208,-0.0167,-0.019,-0.0193,-0.0207,-0.0225,-0.0227,-0.0207,-0.0205,-0.024,-0.0244,-0.0248,-0.03,-0.0258,-0.026,-0.0262,-0.0373,-0.0375,-0.0376,0,0,0,0,0,0,-0.0144,-0.0151,-0.0205,-0.018,-0.0186,-0.0193,-0.0208,-0.0209,-0.0218,-0.0228,-0.0229,-0.0216,-0.0239,-0.0245,-0.0279,-0.0301,-0.0262,-0.0264,-0.0371,-0.0373,-0.0375,-0.0403,0,0,0,0,0,0,-0.0142,-0.015,-0.0167,-0.018,-0.0188,-0.0235,-0.021,-0.021,-0.0223,-0.022,-0.0237,-0.0238,-0.0238,-0.0275,-0.0282,-0.0303,-0.0266,-0.0369,-0.0372,-0.0375,-0.04,-0.0405,-0.041,0,0,0,0,0,-0.014,-0.0174,-0.0167,-0.0174,-0.0208,-0.0237,-0.0241,-0.024,-0.0225,-0.0241,-0.0247,-0.0238,-0.0297,-0.0279,-0.0286,-0.0309,-0.0368,-0.0371,-0.0375,-0.0397,-0.0404,-0.041,0,0,0,0,0,0,-0.0164,-0.0175,-0.0169,-0.0208,-0.0221,-0.0233,-0.0254,-0.0247,-0.0266,-0.0263,-0.0261,-0.0265,-0.0301,-0.0308,-0.0288,-0.0351,-0.033,-0.0335,-0.0345,-0.0352,-0.0357,-0.0355,-0.0268,0,0,0,0,0,-0.0173,-0.0195,-0.0204,-0.0238,-0.0245,-0.0248,-0.0261,-0.0258,-0.0272,-0.0278,-0.0287,-0.0301,-0.0323,-0.0338,-0.0358,-0.04,-0.0404,-0.0419,-0.0424,-0.0429,-0.0433,-0.0456,-0.0463,-0.0387,-0.0387,-0.0387,0,0,-0.0194,-0.0203,-0.0217,-0.0243,-0.0253,-0.0276,-0.0253,-0.0279,-0.0296,-0.0282,-0.0316,-0.0322,-0.0338,-0.0377,-0.0394,-0.0384,-0.0455,-0.0433,-0.0436,-0.0438,-0.046,-0.0467,-0.0473,-0.0389,-0.0389,-0.0388,0,0,-0.0243,-0.0252,-0.0281,-0.0291,-0.0306,-0.0308,-0.0315,-0.0328,-0.0331,-0.0364,-0.0354,-0.0375,-0.0412,-0.0424,-0.0435,-0.0487,-0.0479,-0.0494,-0.0521,-0.0543,-0.0549,-0.0554,-0.0573,-0.058,-0.0498,-0.0498,-0.0498,0,-0.0267,-0.0301,-0.0297,-0.0323,-0.0335,-0.0322,-0.0351,-0.0362,-0.0383,-0.0392,-0.0379,-0.0426,-0.0435,-0.0476,-0.0489,-0.0498,-0.0506,-0.0492,-0.0548,-0.0554,-0.0559,-0.0577,-0.0584,-0.05,-0.0499,-0.0499,-0.0499,0,-0.033,-0.0353,-0.0375,-0.0394,-0.0409,-0.0436,-0.0437,-0.0451,-0.0447,-0.0451,-0.0484,-0.0495,-0.0517,-0.0527,-0.0524,-0.0567,-0.056,-0.0548,-0.0528,-0.0568,-0.0585,-0.0591,-0.0502,-0.0501,-0.0501,-0.05,0,0,-0.0397,-0.0413,-0.0421,-0.043,-0.0444,-0.0463,-0.0489,-0.051,-0.0523,-0.0537,-0.056,-0.0591,-0.058,-0.0592,-0.059,-0.0609,-0.065,-0.0595,-0.0595,-0.0605,-0.0698,-0.0708,-0.0716,-0.0644,-0.0645,-0.0646,-0.0697,0,-0.0448,-0.0494,-0.0491,-0.0535,-0.0556,-0.0544,-0.0567,-0.0579,-0.0582,-0.0601,-0.0605,-0.0627,-0.061,-0.0617,-0.0636,-0.0641,-0.0669,-0.0637,-0.0666,-0.0667,-0.0663,-0.0725,-0.0735,-0.0783,-0.0704,-0.0705,-0.0706,0,-0.0514,-0.053,-0.0575,-0.0586,-0.0595,-0.0616,-0.0634,-0.0652,-0.0665,-0.0666,-0.0679,-0.0673,-0.07,-0.0678,-0.0715,-0.0694,-0.0705,-0.0709,-0.0711,-0.0715,-0.069,-0.0731,-0.0798,-0.0805,-0.0716,-0.0715,-0.0714,0,-0.0559,-0.0591,-0.0623,-0.063,-0.0644,-0.0659,-0.0665,-0.0676,-0.0689,-0.0705,-0.0713,-0.0732,-0.0743,-0.0758,-0.0757,-0.0741,-0.0795,-0.0773,-0.0798,-0.0798,-0.0811,-0.081,-0.0882,-0.0817,-0.0816,-0.0816,-0.0816,0,-0.0617,-0.0645,-0.0643,-0.0663,-0.0694,-0.069,-0.0721,-0.0726,-0.0736,-0.0756,-0.0746,-0.0766,-0.0763,-0.0783,-0.0782,-0.0814,-0.0818,-0.082,-0.082,-0.0822,-0.0822,-0.083,-0.0827,-0.0818,-0.0818,-0.0817,-0.0817,0,-0.0673,-0.0673,-0.0706,-0.0715,-0.0718,-0.0741,-0.0749,-0.0767,-0.0769,-0.0795,-0.0801,-0.0804,-0.0826,-0.0826,-0.0852,-0.0852,-0.089,-0.0886,-0.0886,-0.0885,-0.091,-0.0908,-0.0991,-0.1001,-0.0928,-0.0929,-0.093,0,-0.0711,-0.0732,-0.0743,-0.0755,-0.0762,-0.0783,-0.0795,-0.0791,-0.0804,-0.0819,-0.0836,-0.0857,-0.0874,-0.091,-0.0915,-0.0935,-0.0931,-0.0958,-0.0934,-0.0935,-0.0932,-0.0931,-0.0934,-0.0964,-0.0965,-0.0965,-0.0966,0,-0.0777,-0.0776,-0.0793,-0.0811,-0.0825,-0.0839,-0.0851,-0.0862,-0.086,-0.0875,-0.0897,-0.091,-0.0936,-0.0957,-0.0975,-0.0982,-0.0974,-0.0973,-0.098,-0.0983,-0.0982,-0.0983,-0.09,-0.0972,-0.0971,-0.0971,-0.097,-0.097,-0.0826,-0.0844,-0.0854,-0.0874,-0.0883,-0.0894,-0.0912,-0.0915,-0.0933,-0.0954,-0.095,-0.0975,-0.0986,-0.101,-0.1018,-0.1038,-0.1028,-0.1038,-0.1041,-0.1044,-0.1046,-0.0978,-0.1041,-0.1041,-0.1041,-0.104,-0.104,0,-0.0892,-0.0898,-0.0916,-0.0933,-0.0949,-0.0938,-0.0951,-0.0965,-0.0987,-0.0997,-0.1014,-0.1039,-0.1059,-0.1065,-0.1084,-0.1098,-0.1095,-0.1104,-0.1103,-0.1105,-0.1054,-0.1046,-0.1106,-0.1106,-0.1106,-0.1106,-0.1106,-0.1106,-0.0929,-0.0959,-0.0959,-0.0993,-0.0999,-0.1022,-0.1031,-0.1041,-0.105,-0.1078,-0.1094,-0.1097,-0.1106,-0.1126,-0.1144,-0.1145,-0.1153,-0.1163,-0.1163,-0.1115,-0.1109,-0.1102,-0.1095,-0.1165,-0.1165,-0.1213,-0.1213,-0.1214]},{"header":{"parameterUnit":"m.s-1","parameterCategory":1,"la1":30.2991,"la2":30.254,"lo1":-89.0895,"lo2":-89.0444,"dx":0.0017,"dy":0.0017,"nx":28,"ny":28,"refTime":"2022-11-16T09:00:00:Z","depth":0,"parameterNumber":3,"parameterNumberName":"V-component_of_WINDS"},"data":[0,0,0,0,0,0,0,0,0,0,0,0,0,0,0,0,0,0,0,0,0,0,0,0,0,0,0,0,0,0,0,0,0,0,0,0,0,0,0,0,0,0,0,0,0,0,0,0,0,0,0,0,0,0,0,0,0,0,-7.5491,-7.5492,0,-7.5614,-7.5615,-7.5617,-7.5531,-7.5527,-7.5524,-7.552,-7.5642,-7.5649,-7.5655,0,0,0,0,0,0,0,0,0,0,0,0,0,-7.5178,-7.5184,-7.5491,-7.5492,-7.5494,-7.5614,-7.5615,-7.5617,-7.5532,-7.5527,-7.5523,-7.5518,-7.564,-7.5648,-7.5656,0,0,0,0,0,0,0,0,0,0,0,0,0,-7.5309,-7.5186,-7.5491,-7.5466,-7.5465,-7.5613,-7.5616,-7.5618,-7.5533,-7.5527,-7.5521,-7.5516,-7.5637,-7.5647,-7.5657,-7.5836,0,0,-7.5688,-7.5693,0,0,0,0,0,0,0,0,-7.5301,-7.532,-7.5468,-7.5468,-7.5467,-7.5551,-7.555,-7.5691,-7.5534,-7.5507,-7.552,-7.5513,-7.5616,-7.5628,-7.5663,-7.5841,-7.5846,-7.5689,-7.5696,-7.57,-7.5703,0,0,0,0,0,0,0,-7.5292,-7.5314,-7.5539,-7.547,-7.547,-7.5447,-7.546,-7.5576,-7.5592,-7.5509,-7.5503,-7.5519,-7.5615,-7.5654,-7.5666,-7.5848,-7.5689,-7.5698,-7.5705,-7.5709,-7.6178,-7.6184,0,0,0,0,0,0,-7.5286,-7.5307,-7.5535,-7.5543,-7.5368,-7.5458,-7.5471,-7.553,-7.5591,-7.5595,-7.5524,-7.5515,-7.5639,-7.5654,-7.567,-7.5882,-7.57,-7.571,-7.5715,-7.6172,-7.6179,-7.6186,0,0,0,0,0,0,-7.528,-7.5307,-7.553,-7.5424,-7.5451,-7.5469,-7.5536,-7.5536,-7.5574,-7.5602,-7.5604,-7.5561,-7.5635,-7.5655,-7.5795,-7.5885,-7.5714,-7.5723,-7.6164,-7.6174,-7.6183,-7.631,0,0,0,0,0,0,-7.5271,-7.5305,-7.5374,-7.5426,-7.5457,-7.5656,-7.5541,-7.5542,-7.5593,-7.5582,-7.5637,-7.5641,-7.5632,-7.578,-7.5805,-7.5896,-7.5731,-7.6156,-7.6169,-7.618,-7.6297,-7.6322,-7.6343,0,0,0,0,0,-7.526,-7.5404,-7.5378,-7.5406,-7.5543,-7.5661,-7.5678,-7.5666,-7.56,-7.5669,-7.5687,-7.5639,-7.5872,-7.5795,-7.5823,-7.5918,-7.6151,-7.6165,-7.6179,-7.6287,-7.6317,-7.6343,0,0,0,0,0,0,-7.5361,-7.5411,-7.5382,-7.5548,-7.5601,-7.5646,-7.5733,-7.5699,-7.5771,-7.5757,-7.5738,-7.5751,-7.5898,-7.5922,-7.5836,-7.6094,-7.6,-7.6021,-7.6073,-7.6102,-7.6125,-7.6116,-7.574,0,0,0,0,0,-7.5403,-7.5496,-7.5533,-7.5675,-7.5704,-7.5714,-7.5765,-7.5751,-7.5805,-7.5827,-7.5854,-7.5907,-7.5992,-7.6048,-7.6128,-7.63,-7.6311,-7.6379,-7.6402,-7.6421,-7.6439,-7.6532,-7.6563,-7.6233,-7.6233,-7.6233,0,0,-7.549,-7.5528,-7.5588,-7.5697,-7.5736,-7.5832,-7.5733,-7.5838,-7.5908,-7.5842,-7.5976,-7.5999,-7.6056,-7.6214,-7.6284,-7.6238,-7.6532,-7.6439,-7.6454,-7.6462,-7.655,-7.6581,-7.6609,-7.6243,-7.6241,-7.6239,0,0,-7.5697,-7.5735,-7.5858,-7.59,-7.5962,-7.5968,-7.5998,-7.6049,-7.6061,-7.6196,-7.6148,-7.6231,-7.6377,-7.642,-7.6462,-7.6685,-7.6644,-7.6712,-7.6832,-7.6923,-7.6948,-7.6971,-7.7051,-7.708,-7.6729,-7.673,-7.673,0,-7.5796,-7.5939,-7.5925,-7.6034,-7.6083,-7.6029,-7.6153,-7.6194,-7.6278,-7.6312,-7.626,-7.6443,-7.6478,-7.6644,-7.6699,-7.6734,-7.6767,-7.6705,-7.6946,-7.6969,-7.699,-7.7066,-7.7096,-7.6737,-7.6737,-7.6736,-7.6735,0,-7.6059,-7.6159,-7.625,-7.6335,-7.6394,-7.651,-7.6512,-7.6573,-7.6555,-7.6566,-7.6703,-7.6744,-7.683,-7.6869,-7.6851,-7.7033,-7.7002,-7.6949,-7.6854,-7.703,-7.71,-7.7129,-7.6749,-7.6746,-7.6744,-7.6742,0,0,-7.6332,-7.6408,-7.6442,-7.648,-7.6544,-7.662,-7.6733,-7.682,-7.6873,-7.6932,-7.7026,-7.7152,-7.7102,-7.7149,-7.7136,-7.7215,-7.739,-7.7151,-7.7152,-7.7194,-7.7592,-7.7633,-7.7667,-7.7363,-7.7368,-7.7373,-7.7588,0,-7.6543,-7.6741,-7.6732,-7.6917,-7.7009,-7.6959,-7.7057,-7.7106,-7.712,-7.7199,-7.7212,-7.7302,-7.723,-7.7258,-7.7335,-7.7353,-7.7469,-7.7337,-7.7449,-7.7453,-7.7436,-7.7704,-7.7746,-7.7947,-7.7615,-7.762,-7.7623,0,-7.6815,-7.6886,-7.7081,-7.7132,-7.717,-7.7258,-7.7337,-7.7413,-7.7468,-7.7472,-7.7525,-7.7498,-7.7611,-7.7514,-7.7669,-7.7579,-7.7624,-7.764,-7.7647,-7.7657,-7.7549,-7.772,-7.8011,-7.8041,-7.7667,-7.7663,-7.766,0,-7.6995,-7.7139,-7.7274,-7.7308,-7.7371,-7.7434,-7.7463,-7.7512,-7.7565,-7.7633,-7.7666,-7.7746,-7.779,-7.7852,-7.7847,-7.7777,-7.8005,-7.7907,-7.801,-7.8011,-7.806,-7.8057,-7.8362,-7.809,-7.8089,-7.8089,-7.8088,0,-7.7231,-7.7352,-7.7356,-7.7439,-7.7573,-7.7561,-7.7693,-7.7715,-7.776,-7.7845,-7.7806,-7.7887,-7.7876,-7.7957,-7.7954,-7.8082,-7.8102,-7.8108,-7.8106,-7.8112,-7.8111,-7.8141,-7.8127,-7.8097,-7.8095,-7.8094,-7.8092,0,-7.7455,-7.7463,-7.7607,-7.7655,-7.767,-7.7766,-7.7807,-7.7885,-7.7895,-7.8004,-7.8029,-7.8045,-7.8138,-7.814,-7.8246,-7.8244,-7.8401,-7.8383,-7.8383,-7.838,-7.8483,-7.8473,-7.8818,-7.8862,-7.8561,-7.8564,-7.8566,0,-7.7605,-7.7697,-7.7756,-7.7811,-7.7844,-7.7934,-7.7988,-7.7978,-7.8036,-7.8105,-7.8175,-7.8265,-7.8337,-7.8488,-7.8508,-7.8589,-7.8573,-7.8688,-7.8584,-7.8588,-7.8574,-7.8569,-7.8578,-7.8708,-7.8711,-7.8714,-7.8716,0,-7.7871,-7.787,-7.795,-7.8032,-7.8097,-7.8161,-7.8219,-7.8267,-7.8264,-7.833,-7.8426,-7.8482,-7.8591,-7.8681,-7.8759,-7.8787,-7.8752,-7.8749,-7.8777,-7.8784,-7.878,-7.8784,-7.8438,-7.8741,-7.8738,-7.8736,-7.8735,-7.8734,-7.8062,-7.8142,-7.8196,-7.8286,-7.833,-7.8385,-7.8462,-7.8482,-7.8562,-7.8651,-7.8641,-7.8747,-7.8799,-7.8901,-7.8936,-7.9018,-7.8978,-7.9019,-7.9029,-7.904,-7.9051,-7.8768,-7.9033,-7.9032,-7.9031,-7.9031,-7.903,0,-7.8326,-7.8358,-7.8442,-7.8526,-7.8597,-7.8558,-7.8621,-7.8682,-7.8777,-7.8829,-7.8901,-7.9011,-7.9097,-7.9125,-7.9208,-7.9269,-7.9255,-7.9291,-7.9287,-7.9294,-7.9082,-7.9049,-7.9301,-7.9301,-7.9301,-7.9301,-7.9301,-7.9301,-7.8472,-7.8605,-7.861,-7.8764,-7.8795,-7.89,-7.894,-7.8991,-7.9032,-7.9157,-7.923,-7.9247,-7.9289,-7.9376,-7.9453,-7.9459,-7.9491,-7.9535,-7.9534,-7.9336,-7.9308,-7.9282,-7.9252,-7.9542,-7.9542,-7.9738,-7.974,-7.9742]}]]